CSUNSAT1 (42715 NORAD) Tracking and Keplerian Element Data

This shows tracking and keplerian element data for the satellite.

Feedback or suggestion? Click here.




ElementValue
Catalog42715
NameCSUNSAT1
Epoch Orbit10553
Epoch Day81.9628147
Epoch Year2019
RAAN0.3549
Inclination51.6285
Eccentricity0.000508
Argument of Perigee164.043
Mean Anonmoly196.0737
Mean Motion15.92801706
Decay Rate0.0011605
L11 42715U 98067LW 19081.96281470 .00116050 16265-4 33601-3 0 9998
L22 42715 51.6285 0.3549 0005080 164.0430 196.0737 15.92801706105536

Live tracking and technical data element details for CSUNSAT1 (NORAD 42715). CSUNSAT1 can be tracked NOW for your location showing map with azimuth and elevation plus other details from your city location.

Track the satellite on the map from your city or location and see movement details for azimuth, elevation, latitude, longitude, range, height, and movement on the map or in text.







IsCatalogInMostPopularTable: catalog: 42715, numindb: 225
Update: records affected: 1



GetName: 42715 CSUNSAT1

Hit Count: updated at: Sun, 24 Mar 2019 08:39:56 GMT